ARIANE 2 DEB, 33558

Orbit data source: Space-Track

ARIANE 2 DEB, 33558 is space debris in HEO originally from a launch on Fri, 27 Jan 1989 UTC launched from the French Guiana (FRGUI). Debris objects in space refer to the collection of defunct objects orbiting the Earth. Examples of debris include non-operational satellites, rocket bodies, and fragments generated from explosions, collisions, or faulty payload assembly.

Loading next visibility...
Identifier
33558, 1989-006BA
Orbit
HEO
Country
Flag of FRFR
Related business
Manufacturer
EADS/LV
Mission
Spacecraft
Bus & Motor
Unknown
Mass
Unknown
Launch date (UTC)
1989-01-27 (38 years ago)
Launch vehicle
Unknown
Launch site
French Guiana (FRGUI)
Object type
Payload
Rocket body
Debris
Shape & HBR
Unknown shape, 0.2 m
Radar Cross Section
Medium (>0.1 m² and <1 m²)

Expand to show TLE details & history
Last TLE update: 3 weeks ago

TLE from 3 weeks ago
0 ARIANE 2 DEB
1 33558U 89006BA  26239.32732191 -.00000013  00000-0  00000-0 0  9992
2 33558  10.5612 316.3484 6944810 303.9139   8.5721  2.21844079 22835
Epoch: 2026-08-27T07:51Z
TLE epoch observation values (Epoch: 2026-08-27T07:51:20.613Z)
Latitude
0.00007°
Longitude
-136.89946°
Altitude
2,919.922 km
Speed
8.347 km/s
True Right ascension
21h 06m 00s
True Declination
0° 00' 00"
Sunlit
Object was in full shadow at epoch
Visualization orbit readout
Latitude
Unknown
Longitude
Unknown
Altitude
Unknown
Speed
Unknown
Apparent Right ascension
Unknown
Apparent Declination
Unknown
Sunlit
N/A
Visualization observer readout
Local Sidereal Time
21:28:35
Azimuth
Unknown
Elevation
Unknown
Doppler factor
Unknown
Orbital elements
Apogee altitude
35,709.317 km
Perigee altitude
1,210.332 km
Semi-major axis
24,837.962 km
Eccentricity
0.69448
Inclination
10.5612°
RAAN
316.3484°
Arg. of periapsis
303.9139°
True anomaly
57.14395°
Mean anomaly
8.5721°
Eccentric anomaly
26.04057°
Mean motion
0.55446 °/min
Orbital period
649.28 mins
BSTAR
0
Loading maneuver chart data...
Computing Atmospheric mass density...
Loading historical data...
Loading historical data...
Loading historical data...
Loading historical data...
Loading historical data...
Loading historical data...
Loading historical data...

Documentation

Showing up to 5 results
|